Location: Wheeling
(40.0640°N, 80.7210°W)
Time: 20:21:48
(UTC-05:00)

KAITUO 1B - Pass Details

Date: 29 October 2021
Orbit: 490 x 506 km, 97.4° (Epoch: 30 November)

Event Time Altitude Azimuth Distance (km) Brightness Sun altitude
Rises 18:55:36 0° 162° (SSE) 2,550 ? -6.8°
Reaches altitude 10° 18:57:40 10° 160° (SSE) 1,673 ? -7.1°
Maximum altitude 19:01:14 71° 77° (ENE) 521 ? -7.8°
Drops below altitude 10° 19:04:51 10° 352° (N) 1,689 ? -8.5°
Sets 19:06:57 0° 351° (N) 2,576 ? -8.9°
